This is the latest recevied weather packets stored in our database for station/object AE0NK. If no packets are shown the sender has not sent any weather packets the latest 10 day(s).
| Time | Temp. | Humidity | Pressure | Rain* | Wind** | Luminosity | Snow |
|---|---|---|---|---|---|---|---|
| 1777544904 | 4.44° C | 76% | 1016.4 hPa | 0 mm | - | 0 W/m² | - |
| 1777544601 | 4.44° C | 75% | 1016.4 hPa | 0 mm | - | 0 W/m² | - |
| 1777544298 | 4.44° C | 74% | 1016.5 hPa | 0 mm | - | 0 W/m² | - |
| 1777543996 | 5° C | 75% | 1016.5 hPa | 0 mm | - | 0 W/m² | - |
| 1777543693 | 5° C | 75% | 1016.5 hPa | 0 mm | - | 0 W/m² | - |
| 1777543393 | 5° C | 73% | 1016.6 hPa | 0 mm | - | 0 W/m² | - |
| 1777543109 | 5° C | 72% | 1016.5 hPa | 0 mm | - | 0 W/m² | - |
| 1777542805 | 5° C | 71% | 1016.5 hPa | 0 mm | - | 0 W/m² | - |
| 1777542499 | 5° C | 71% | 1016.5 hPa | 0 mm | - | 0 W/m² | - |
| 1777542194 | 5° C | 70% | 1016.6 hPa | 0 mm | - | 0 W/m² | - |
| 1777541910 | 5.56° C | 70% | 1016.7 hPa | 0 mm | - | 0 W/m² | - |
| 1777541608 | 5.56° C | 70% | 1016.8 hPa | 0 mm | - | 0 W/m² | - |
| 1777541305 | 5.56° C | 67% | 1016.8 hPa | 0 mm | - | 0 W/m² | - |
| 1777541005 | 5.56° C | 66% | 1017 hPa | 0 mm | - | 0 W/m² | - |
| 1777540703 | 5.56° C | 66% | 1017 hPa | 0 mm | - | 0 W/m² | - |
| 1777540398 | 5.56° C | 68% | 1017 hPa | 0 mm | - | 0 W/m² | - |
| 1777540095 | 5.56° C | 66% | 1016.9 hPa | 0 mm | - | 0 W/m² | - |
| 1777539792 | 5.56° C | 66% | 1016.9 hPa | 0 mm | - | 0 W/m² | - |
| 1777539503 | 5.56° C | 68% | 1016.9 hPa | 0 mm | - | 0 W/m² | - |
| 1777539199 | 5.56° C | 69% | 1017.2 hPa | 0 mm | - | 0 W/m² | - |
| 1777538896 | 5.56° C | 66% | 1016.9 hPa | 0 mm | - | 0 W/m² | - |
| 1777538593 | 5.56° C | 65% | 1017 hPa | 0 mm | - | 0 W/m² | - |
| 1777538291 | 5° C | 65% | 1016.9 hPa | 0 mm | - | 0 W/m² | - |
| 1777538009 | 5° C | 66% | 1016.9 hPa | 0 mm | - | 0 W/m² | - |
| 1777537705 | 5° C | 67% | 1016.9 hPa | 0 mm | - | 0 W/m² | - |
* Rain latest hour (hover to see other rain measurements)
** Current wind speed in m/s (hover to see current wind gust speed)